GW1572 Weather Reports


time (UTC)temp
C
wind
direction
speed
KPH
gust
KPH
rain 1hr
cm
rain 24hr
cm
rain mn
cm
humidity
%
barometer
mb
20260903112442 22 142 0.0 0.0 0.00 0.00 0.00 99 1009.4
20260903111840 22 143 0.0 0.0 0.00 0.00 0.00 99 1009.4
20260903111238 22 144 0.0 0.0 0.00 0.00 0.00 99 1009.1
20260903110016 22 143 0.0 0.0 0.00 0.00 0.00 99 1009.1
20260903104807 22 134 0.0 0.0 0.00 0.00 0.00 99 1009.1
20260903103014 22 129 0.0 0.0 0.00 0.00 0.00 99 1008.8
20260903102426 22 140 0.0 0.0 0.00 0.00 0.00 99 1008.8
20260903101226 22 140 0.0 0.0 0.00 0.00 0.00 99 1008.8
20260903100036 22 124 0.0 0.0 0.00 0.00 0.00 99 1008.8
20260903095419 22 136 0.0 0.0 0.00 0.00 0.00 99 1008.8
20260903094811 22 122 0.0 0.0 0.00 0.00 0.00 99 1008.8
20260903093017 22 139 0.0 0.0 0.00 0.00 0.00 99 1008.8
20260903092412 22 138 0.0 0.0 0.00 0.00 0.00 99 1008.8
20260903091837 22 136 0.0 0.0 0.00 0.00 0.00 99 1008.8
20260903091237 22 134 0.0 0.0 0.00 0.00 0.00 99 1008.8
20260903090638 22 134 0.0 0.0 0.00 0.00 0.00 99 1008.8
20260903090044 22 132 0.0 0.0 0.00 0.00 0.00 99 1008.4
20260903085441 22 135 0.0 0.0 0.00 0.00 0.00 99 1008.8
20260903084817 22 135 0.0 0.0 0.00 0.00 0.00 99 1008.8
20260903084237 22 131 0.0 0.0 0.00 0.00 0.00 99 1008.8
20260903083050 22 135 0.0 0.0 0.00 0.00 0.00 99 1008.4
20260903082447 22 135 0.0 0.0 0.00 0.00 0.00 99 1008.4
20260903081849 22 127 0.0 0.0 0.00 0.00 0.00 99 1008.8
20260903081206 22 126 0.0 0.0 0.00 0.00 0.00 99 1008.8
20260903080612 22 141 0.0 0.0 0.00 0.00 0.00 99 1008.4
20260903080026 22 138 0.0 0.0 0.00 0.00 0.00 99 1008.8
20260903075430 23 136 0.0 0.0 0.00 0.00 0.00 99 1008.4
20260903074832 23 133 0.0 0.0 0.00 0.00 0.00 99 1008.4
20260903074223 23 132 0.0 0.0 0.00 0.00 0.00 99 1008.8
20260903073605 23 124 0.0 0.0 0.00 0.00 0.00 99 1008.4
20260903072436 23 124 0.0 0.0 0.00 0.00 0.00 99 1008.4
20260903071845 23 126 0.0 0.0 0.00 0.00 0.00 99 1008.4
20260903071242 23 140 0.0 0.0 0.00 0.00 0.00 99 1008.4
20260903070626 23 138 0.0 0.0 0.00 0.00 0.00 99 1008.4
20260903065443 23 141 0.0 0.0 0.00 0.00 0.00 99 1008.4
20260903064840 23 140 0.0 0.0 0.00 0.00 0.00 99 1008.4
20260903064209 23 142 0.0 0.0 0.00 0.00 0.00 99 1008.4
20260903063612 23 148 0.0 0.0 0.00 0.00 0.00 99 1008.4
20260903063035 23 142 0.0 0.0 0.00 0.00 0.00 99 1008.8
20260903062413 23 150 0.0 0.0 0.00 0.00 0.00 99 1008.8
20260903061826 23 148 0.0 0.0 0.00 0.00 0.00 99 1008.8
20260903061223 23 148 0.0 0.0 0.00 0.00 0.00 99 1008.8
20260903060643 23 146 0.0 0.0 0.00 0.00 0.00 99 1008.4
20260903060022 23 145 0.0 0.0 0.00 0.00 0.00 99 1008.8
20260903055421 23 137 0.0 0.0 0.00 0.00 0.00 99 1008.4
20260903054841 23 143 0.0 0.0 0.00 0.00 0.00 99 1008.8
20260903054241 23 146 0.0 0.0 0.00 0.00 0.00 99 1008.4
20260903053630 23 144 0.0 0.0 0.00 0.00 0.00 99 1008.1
20260903053045 23 138 0.0 0.0 0.00 0.00 0.00 99 1008.4
20260903052414 23 122 0.0 0.0 0.00 0.00 0.00 99 1008.4
20260903051836 23 131 0.0 0.0 0.00 0.00 0.00 99 1008.1
20260903051246 23 140 0.0 0.0 0.00 0.00 0.00 99 1008.4
20260903050044 23 132 0.0 0.0 0.00 0.00 0.00 99 1008.1
20260903045423 23 142 0.0 0.0 0.00 0.00 0.00 99 1008.4
20260903044820 24 132 0.0 0.0 0.00 0.00 0.00 99 1008.1
20260903044241 24 147 0.0 0.0 0.00 0.00 0.00 99 1008.1
20260903043608 24 145 0.0 0.0 0.00 0.00 0.00 99 1007.7
20260903042436 24 139 0.0 0.0 0.00 0.00 0.00 99 1008.1
20260903041809 24 144 0.0 0.0 0.00 0.00 0.00 99 1008.1
20260903040636 24 144 0.0 0.0 0.00 0.00 0.00 99 1008.1
20260903033647 25 141 0.0 0.0 0.00 0.00 0.00 99 1008.8
20260903033021 25 136 0.0 0.0 0.00 0.00 0.00 99 1008.4
20260903032429 25 141 0.0 0.0 0.00 0.00 0.00 99 1008.4
20260903031847 25 135 0.0 0.0 0.00 0.00 0.00 98 1008.4
20260903031227 25 144 0.0 0.0 0.00 0.00 0.00 98 1008.1
20260903030031 25 132 0.0 0.0 0.00 0.00 0.00 98 1008.4
20260903025421 25 121 0.0 0.0 0.00 0.00 0.00 97 1008.4
20260903024819 25 136 0.0 0.0 0.00 0.00 0.00 97 1008.8
20260903024240 25 135 0.0 0.0 0.00 0.00 0.00 97 1008.8
20260903023031 25 124 0.0 0.0 0.00 0.00 0.00 96 1008.4
20260903022413 25 138 0.0 0.0 0.00 0.00 0.00 96 1008.8
20260903021831 25 134 0.0 0.0 0.00 0.00 0.00 96 1008.4
20260903021225 25 147 0.0 0.0 0.00 0.00 0.00 96 1008.4
20260903020614 25 144 0.0 0.0 0.00 0.00 0.00 95 1008.4
20260903020031 25 140 0.0 0.0 0.00 0.00 0.00 95 1008.4
20260903014825 25 137 0.0 0.0 0.00 0.00 0.00 94 1008.1
20260903013041 26 136 0.0 0.0 0.00 0.00 0.00 94 1008.4
20260903012417 26 138 0.0 0.0 0.00 0.00 0.00 94 1008.4
20260903011247 26 131 0.0 0.0 0.00 0.00 0.00 93 1008.4
20260903010631 26 132 0.0 0.0 0.00 0.00 0.00 92 1008.1
20260903010042 26 131 0.0 0.0 0.00 0.00 0.00 92 1008.1
20260903005428 26 132 0.0 0.0 0.00 0.00 0.00 92 1008.1
20260903004849 26 127 0.0 0.0 0.00 0.00 0.00 91 1007.7
20260903004227 26 135 0.0 0.0 0.00 0.00 0.00 91 1008.1
20260903003640 27 124 0.0 0.0 0.00 0.00 0.00 90 1007.7
20260903002418 27 143 0.0 0.0 0.00 0.00 0.00 88 1007.7
20260903001845 27 145 0.0 0.0 0.00 0.00 0.00 88 1007.7
20260903001207 27 136 0.0 0.0 0.00 0.00 0.00 87 1007.7
20260903000622 28 140 0.0 0.0 0.00 0.00 0.00 86 1007.7
20260903000030 28 141 0.0 0.0 0.00 0.00 0.00 83 1007.7
20260902235426 29 136 0.0 0.0 0.00 0.00 0.00 81 1007.7
20260902234827 30 136 0.0 0.0 0.00 0.00 0.00 79 1007.7
20260902234231 30 134 0.0 0.0 0.00 0.00 0.00 77 1007.7
20260902232448 33 151 0.0 0.0 0.00 0.00 0.00 71 1007.7
20260902231807 33 143 0.0 0.0 0.00 0.00 0.00 69 1007.7
20260902230636 34 124 0.0 0.0 0.00 0.00 0.00 67 1007.7
20260902225422 35 147 0.0 0.0 0.00 0.00 0.00 65 1007.7
20260902224832 35 156 0.0 0.0 0.00 0.00 0.00 65 1007.7
20260902224238 36 171 0.0 0.0 0.00 0.00 0.00 65 1007.7
20260902223649 36 148 0.0 0.0 0.00 0.00 0.00 64 1008.1
20260902223034 36 162 0.0 0.0 0.00 0.00 0.00 64 1008.1
20260902222413 36 165 0.0 1.6 0.00 0.00 0.00 65 1008.1
20260902221814 36 196 0.0 0.0 0.00 0.00 0.00 65 1007.7
20260902221219 36 139 0.0 0.0 0.00 0.00 0.00 65 1007.7
20260902220629 36 149 0.0 1.6 0.00 0.00 0.00 64 1008.1
20260902220047 36 182 1.6 1.6 0.00 0.00 0.00 64 1008.1
20260902215407 36 181 0.0 1.6 0.00 0.00 0.00 63 1007.7
20260902214848 36 168 1.6 1.6 0.00 0.00 0.00 64 1007.7
20260902214236 36 143 0.0 1.6 0.00 0.00 0.00 59 1008.1
20260902213633 36 285 3.2 3.2 0.00 0.00 0.00 56 1007.7
20260902213030 37 74 1.6 1.6 0.00 0.00 0.00 56 1008.1
20260902212428 36 318 1.6 1.6 0.00 0.00 0.00 58 1007.7
20260902211842 36 208 1.6 1.6 0.00 0.00 0.00 60 1007.7
20260902210614 36 143 1.6 1.6 0.00 0.00 0.00 55 1007.7
20260902210017 36 68 1.6 3.2 0.00 0.00 0.00 56 1008.1
20260902205407 37 314 1.6 3.2 0.00 0.00 0.00 56 1008.1
20260902204845 37 160 1.6 1.6 0.00 0.00 0.00 56 1008.4
20260902204243 36 157 1.6 3.2 0.00 0.00 0.00 55 1008.4
20260902203641 36 207 1.6 1.6 0.00 0.00 0.00 53 1008.4
20260902203013 36 14 1.6 1.6 0.00 0.00 0.00 55 1008.8
20260902202412 36 73 1.6 1.6 0.00 0.00 0.00 56 1008.4
20260902201809 36 272 3.2 3.2 0.00 0.00 0.00 58 1008.8
20260902201247 37 3 4.8 4.8 0.00 0.00 0.00 54 1008.8
20260902200642 36 123 1.6 1.6 0.00 0.00 0.00 54 1008.8
20260902194813 36 150 3.2 3.2 0.00 0.00 0.00 54 1009.1
20260902194231 36 189 3.2 3.2 0.00 0.00 0.00 58 1009.1
20260902193638 36 142 1.6 1.6 0.00 0.00 0.00 56 1009.1
20260902193024 36 341 3.2 3.2 0.00 0.00 0.00 56 1009.1
20260902192449 36 171 1.6 1.6 0.00 0.00 0.00 58 1009.4
20260902191835 36 259 1.6 1.6 0.00 0.00 0.00 55 1009.1
20260902190627 35 290 3.2 3.2 0.00 0.00 0.00 57 1009.1
20260902190016 36 229 1.6 1.6 0.00 0.00 0.00 58 1009.1
20260902185448 34 277 3.2 3.2 0.00 0.00 0.00 58 1009.1
20260902184841 35 24 3.2 4.8 0.00 0.00 0.00 59 1009.1
20260902183609 35 120 1.6 1.6 0.00 0.00 0.00 63 1009.4
20260902183035 35 328 3.2 3.2 0.00 0.00 0.00 59 1009.4
20260902182443 35 205 1.6 1.6 0.00 0.00 0.00 61 1009.4
20260902181247 34 15 1.6 1.6 0.00 0.00 0.00 59 1009.4
20260902180645 34 353 3.2 4.8 0.00 0.00 0.00 59 1009.4
20260902180012 34 237 6.4 6.4 0.00 0.00 0.00 60 1009.4
20260902175423 34 347 4.8 6.4 0.00 0.00 0.00 63 1009.4
20260902174813 34 55 3.2 4.8 0.00 0.00 0.00 63 1009.8
20260902174234 34 328 3.2 4.8 0.00 0.00 0.00 63 1009.8
20260902173634 34 37 1.6 3.2 0.00 0.00 0.00 64 1009.8
20260902173028 33 63 3.2 4.8 0.00 0.00 0.00 66 1010.1
20260902172444 33 244 3.2 4.8 0.00 0.00 0.00 65 1010.4
20260902171817 33 349 3.2 3.2 0.00 0.00 0.00 65 1010.4
20260902171206 33 259 3.2 4.8 0.00 0.00 0.00 65 1010.4
20260902170647 33 73 1.6 3.2 0.00 0.00 0.00 64 1010.4
20260902170024 33 317 4.8 6.4 0.00 0.00 0.00 67 1010.4
20260902165424 33 209 1.6 1.6 0.00 0.00 0.00 68 1010.4
20260902164207 33 320 3.2 3.2 0.00 0.00 0.00 67 1010.8
20260902163612 33 195 1.6 3.2 0.00 0.00 0.00 70 1010.8
20260902163010 33 151 0.0 1.6 0.00 0.00 0.00 67 1010.8
20260902162424 33 270 0.0 1.6 0.00 0.00 0.00 71 1011.1
20260902161822 33 171 0.0 1.6 0.00 0.00 0.00 69 1011.1
20260902161215 32 173 0.0 1.6 0.00 0.00 0.00 72 1011.1
20260902160043 32 255 3.2 4.8 0.00 0.00 0.00 72 1011.1
20260902155438 32 295 3.2 4.8 0.00 0.00 0.00 74 1011.1
20260902154817 32 282 1.6 3.2 0.00 0.00 0.00 72 1011.1
20260902154230 32 178 3.2 3.2 0.00 0.00 0.00 76 1011.5
20260902153033 31 135 1.6 3.2 0.00 0.00 0.00 74 1011.5
20260902152412 31 88 1.6 1.6 0.00 0.00 0.00 75 1011.1
20260902151838 30 181 1.6 1.6 0.00 0.00 0.00 78 1011.1
20260902150029 29 177 1.6 1.6 0.00 0.00 0.00 84 1011.1
20260902145445 28 178 1.6 1.6 0.00 0.00 0.00 87 1011.1
20260902144233 28 157 1.6 1.6 0.00 0.00 0.00 91 1011.1
20260902143627 27 149 0.0 0.0 0.00 0.00 0.00 93 1010.8
20260902143043 27 135 0.0 0.0 0.00 0.00 0.00 92 1010.8
20260902142438 27 157 0.0 1.6 0.00 0.00 0.00 94 1011.1
20260902141822 27 148 0.0 0.0 0.00 0.00 0.00 96 1010.8
20260902141225 26 153 0.0 0.0 0.00 0.00 0.00 96 1011.1
20260902140643 26 152 0.0 0.0 0.00 0.00 0.00 97 1011.1
20260902140014 25 150 0.0 0.0 0.00 0.00 0.00 98 1011.1
20260902135430 25 154 0.0 0.0 0.00 0.00 0.00 99 1011.1
20260902134845 25 160 0.0 1.6 0.00 0.00 0.00 99 1010.8
20260902134207 24 144 0.0 0.0 0.00 0.00 0.00 99 1011.1
20260902133612 24 149 0.0 0.0 0.00 0.00 0.00 99 1011.1
20260902133016 23 153 1.6 1.6 0.00 0.00 0.00 99 1010.8
20260902132406 23 149 0.0 0.0 0.00 0.00 0.00 99 1011.1
20260902131229 23 152 0.0 0.0 0.00 0.00 0.00 99 1010.8
20260902130010 22 151 0.0 0.0 0.00 0.00 0.00 99 1010.8
20260902125429 22 152 0.0 0.0 0.00 0.00 0.00 99 1010.8
20260902123634 22 149 0.0 0.0 0.00 0.00 0.00 99 1010.8
20260902122449 22 149 0.0 0.0 0.00 0.00 0.00 99 1010.8
20260902121822 22 149 0.0 0.0 0.00 0.00 0.00 99 1010.8
20260902121239 22 149 0.0 0.0 0.00 0.00 0.00 99 1010.4
20260902120627 21 149 0.0 0.0 0.00 0.00 0.00 99 1010.8
20260902120044 21 149 0.0 0.0 0.00 0.00 0.00 99 1010.4
20260902115429 21 149 0.0 0.0 0.00 0.00 0.00 99 1010.8
20260902114825 21 153 0.0 0.0 0.00 0.00 0.00 99 1010.4
20260902114231 21 154 0.0 0.0 0.00 0.00 0.00 99 1010.4
20260902113642 21 155 0.0 0.0 0.00 0.00 0.00 99 1010.4
20260902113050 21 155 0.0 0.0 0.00 0.00 0.00 99 1010.4